Location: Shepherdstown, WV
(39.4326°N, 77.8042°W)
Time: 15:10:27
(UTC-04:00)

S-56A Canister/Altair - Pass Details

Date: 04 August 2021
Orbit: 632 x 2500 km, 38.9° (Epoch: 15 September)

Event Time Altitude Azimuth Distance (km) Brightness Sun altitude
Rises 21:35:20 0° 289° (WNW) 6,175 13.7 -13.5°
Reaches altitude 10° 21:39:54 10° 281° (W) 5,159 12.8 -14.2°
Maximum altitude 21:52:27 35° 224° (SW) 3,243 10.7 -16.1°
Enters shadow 22:02:07 12° 167° (SSE) 4,094 10.7 -17.6°
